| time (UTC) | temp F | wind direction | speed MPH | gust MPH | rain 1hr in | rain 24hr in | rain mn in | humidity % | barometer mb |
| 20260505194250 | 78 | 250 | 7.0 | 11.0 | 0.00 | 0.00 | 0.00 | 32 | 1015.0 |
| 20260505193746 | 78 | 205 | 4.0 | 7.0 | 0.00 | 0.00 | 0.00 | 34 | 1015.2 |
| 20260505193244 | 78 | 187 | 5.0 | 9.0 | 0.00 | 0.00 | 0.00 | 32 | 1015.3 |
| 20260505192742 | 78 | 190 | 4.0 | 10.0 | 0.00 | 0.00 | 0.00 | 35 | 1015.3 |
| 20260505192239 | 78 | 170 | 6.0 | 8.0 | 0.00 | 0.00 | 0.00 | 34 | 1015.3 |
| 20260505191737 | 78 | 155 | 6.0 | 8.0 | 0.00 | 0.00 | 0.00 | 36 | 1015.6 |
| 20260505191235 | 78 | 156 | 7.0 | 10.0 | 0.00 | 0.00 | 0.00 | 35 | 1015.7 |
| 20260505190731 | 78 | 263 | 4.0 | 6.0 | 0.00 | 0.00 | 0.00 | 34 | 1015.5 |
| 20260505190231 | 78 | 185 | 7.0 | 9.0 | 0.00 | 0.00 | 0.00 | 34 | 1015.7 |
| 20260505185728 | 77 | 87 | 3.0 | 3.0 | 0.00 | 0.00 | 0.00 | 35 | 1015.9 |
| 20260505185225 | 77 | 244 | 3.0 | 11.0 | 0.00 | 0.00 | 0.00 | 35 | 1015.9 |
| 20260505184720 | 77 | 208 | 8.0 | 9.0 | 0.00 | 0.00 | 0.00 | 34 | 1015.9 |
| 20260505184218 | 78 | 213 | 5.0 | 7.0 | 0.00 | 0.00 | 0.00 | 34 | 1016.0 |
| 20260505183715 | 78 | 199 | 4.0 | 7.0 | 0.00 | 0.00 | 0.00 | 34 | 1016.1 |
| 20260505183212 | 78 | 259 | 9.0 | 13.0 | 0.00 | 0.00 | 0.00 | 35 | 1016.2 |
| 20260505182708 | 78 | 225 | 5.0 | 10.0 | 0.00 | 0.00 | 0.00 | 34 | 1016.3 |
| 20260505182206 | 77 | 196 | 8.0 | 10.0 | 0.00 | 0.00 | 0.00 | 33 | 1016.0 |
| 20260505181702 | 77 | 205 | 4.0 | 7.0 | 0.00 | 0.00 | 0.00 | 33 | 1016.2 |
| 20260505181200 | 77 | 248 | 8.0 | 14.0 | 0.00 | 0.00 | 0.00 | 34 | 1016.1 |
| 20260505180655 | 77 | 225 | 4.0 | 9.0 | 0.00 | 0.00 | 0.00 | 36 | 1016.2 |
| 20260505180153 | 77 | 126 | 4.0 | 9.0 | 0.00 | 0.00 | 0.00 | 36 | 1016.3 |
| 20260505175649 | 77 | 146 | 8.0 | 11.0 | 0.00 | 0.00 | 0.00 | 35 | 1016.5 |
| 20260505175145 | 76 | 206 | 3.0 | 8.0 | 0.00 | 0.00 | 0.00 | 35 | 1016.5 |
| 20260505174642 | 77 | 241 | 6.0 | 10.0 | 0.00 | 0.00 | 0.00 | 35 | 1016.6 |
| 20260505174138 | 77 | 172 | 9.0 | 13.0 | 0.00 | 0.00 | 0.00 | 32 | 1016.8 |
| 20260505173635 | 77 | 165 | 5.0 | 9.0 | 0.00 | 0.00 | 0.00 | 36 | 1016.9 |
| 20260505173132 | 76 | 248 | 3.0 | 6.0 | 0.00 | 0.00 | 0.00 | 37 | 1016.7 |
| 20260505172629 | 77 | 207 | 3.0 | 7.0 | 0.00 | 0.00 | 0.00 | 39 | 1017.0 |
| 20260505172126 | 77 | 144 | 4.0 | 11.0 | 0.00 | 0.00 | 0.00 | 38 | 1017.0 |
| 20260505171620 | 76 | 168 | 0.0 | 6.0 | 0.00 | 0.00 | 0.00 | 37 | 1017.0 |
| 20260505171118 | 76 | 232 | 4.0 | 7.0 | 0.00 | 0.00 | 0.00 | 36 | 1017.0 |
| 20260505170615 | 76 | 185 | 4.0 | 9.0 | 0.00 | 0.00 | 0.00 | 35 | 1017.1 |
| 20260505170111 | 76 | 184 | 2.0 | 6.0 | 0.00 | 0.00 | 0.00 | 33 | 1017.2 |
| 20260505165606 | 76 | 161 | 3.0 | 11.0 | 0.00 | 0.00 | 0.00 | 35 | 1017.0 |
| 20260505165102 | 76 | 185 | 2.0 | 9.0 | 0.00 | 0.00 | 0.00 | 34 | 1017.1 |
| 20260505164558 | 76 | 167 | 3.0 | 7.0 | 0.00 | 0.00 | 0.00 | 36 | 1017.1 |
| 20260505164056 | 75 | 280 | 2.0 | 6.0 | 0.00 | 0.00 | 0.00 | 36 | 1017.1 |
| 20260505163555 | 76 | 343 | 5.0 | 6.0 | 0.00 | 0.00 | 0.00 | 35 | 1017.0 |
| 20260505163051 | 76 | 268 | 6.0 | 8.0 | 0.00 | 0.00 | 0.00 | 35 | 1017.0 |
| 20260505162549 | 74 | 197 | 1.0 | 2.0 | 0.00 | 0.00 | 0.00 | 39 | 1017.2 |
| 20260505162047 | 74 | 191 | 2.0 | 7.0 | 0.00 | 0.00 | 0.00 | 40 | 1017.2 |
| 20260505161543 | 74 | 181 | 3.0 | 6.0 | 0.00 | 0.00 | 0.00 | 43 | 1017.1 |
| 20260505161041 | 73 | 110 | 2.0 | 4.0 | 0.00 | 0.00 | 0.00 | 45 | 1017.1 |
| 20260505160538 | 73 | 43 | 4.0 | 7.0 | 0.00 | 0.00 | 0.00 | 46 | 1017.4 |
| 20260505153015 | 71 | 191 | 1.0 | 3.0 | 0.00 | 0.00 | 0.00 | 48 | 1017.9 |
| 20260505152512 | 71 | 180 | 2.0 | 2.0 | 0.00 | 0.00 | 0.00 | 50 | 1017.4 |
| 20260505152008 | 71 | 67 | 1.0 | 2.0 | 0.00 | 0.00 | 0.00 | 50 | 1017.7 |
| 20260505151503 | 70 | 220 | 0.0 | 1.0 | 0.00 | 0.00 | 0.00 | 51 | 1017.8 |
| 20260505151000 | 69 | 70 | 1.0 | 2.0 | 0.00 | 0.00 | 0.00 | 55 | 1017.7 |
| 20260505150457 | 69 | 151 | 0.0 | 2.0 | 0.00 | 0.00 | 0.00 | 55 | 1017.7 |
| 20260505140427 | 64 | 139 | 0.0 | 1.0 | 0.00 | 0.00 | 0.00 | 63 | 1017.6 |
| 20260505124840 | 59 | 118 | 0.0 | 1.0 | 0.00 | 0.00 | 0.00 | 71 | 1017.2 |
| 20260505124337 | 59 | 118 | 1.0 | 1.0 | 0.00 | 0.00 | 0.00 | 73 | 1017.2 |
| 20260505123833 | 58 | 152 | 0.0 | 1.0 | 0.00 | 0.00 | 0.00 | 78 | 1017.1 |
| 20260505123330 | 57 | 124 | 0.0 | 0.0 | 0.00 | 0.00 | 0.00 | 78 | 1017.0 |
| 20260505122826 | 56 | 124 | 0.0 | 1.0 | 0.00 | 0.00 | 0.00 | 82 | 1017.2 |
| 20260505122324 | 56 | 124 | 0.0 | 0.0 | 0.00 | 0.00 | 0.00 | 79 | 1017.1 |
| 20260505121820 | 55 | 124 | 0.0 | 1.0 | 0.00 | 0.00 | 0.00 | 80 | 1017.1 |
| 20260505121317 | 53 | 124 | 0.0 | 0.0 | 0.00 | 0.00 | 0.00 | 87 | 1017.2 |
| 20260505120813 | 53 | 124 | 0.0 | 1.0 | 0.00 | 0.00 | 0.00 | 88 | 1017.1 |
| 20260505120309 | 52 | 123 | 0.0 | 0.0 | 0.00 | 0.00 | 0.00 | 90 | 1016.8 |
| 20260505115808 | 51 | 124 | 0.0 | 0.0 | 0.00 | 0.00 | 0.00 | 93 | 1016.8 |
| 20260505115306 | 51 | 124 | 0.0 | 0.0 | 0.00 | 0.00 | 0.00 | 94 | 1016.6 |
| 20260505114803 | 50 | 123 | 0.0 | 0.0 | 0.00 | 0.00 | 0.00 | 95 | 1016.7 |
| 20260505114300 | 50 | 123 | 0.0 | 0.0 | 0.00 | 0.00 | 0.00 | 96 | 1016.6 |
| 20260505113756 | 50 | 123 | 0.0 | 0.0 | 0.00 | 0.00 | 0.00 | 96 | 1016.2 |
| 20260505113252 | 49 | 123 | 0.0 | 0.0 | 0.00 | 0.00 | 0.00 | 97 | 1016.5 |
| 20260505112748 | 48 | 123 | 0.0 | 0.0 | 0.00 | 0.00 | 0.00 | 97 | 1016.5 |
| 20260505112246 | 47 | 122 | 1.0 | 1.0 | 0.00 | 0.00 | 0.00 | 97 | 1016.2 |
| 20260505111747 | 47 | 121 | 0.0 | 1.0 | 0.00 | 0.00 | 0.00 | 97 | 1016.3 |
| 20260505111243 | 46 | 122 | 0.0 | 1.0 | 0.00 | 0.00 | 0.00 | 97 | 1016.2 |
| 20260505110738 | 46 | 132 | 0.0 | 1.0 | 0.00 | 0.00 | 0.00 | 97 | 1016.3 |
| 20260505110237 | 46 | 146 | 0.0 | 0.0 | 0.00 | 0.00 | 0.00 | 97 | 1016.1 |
| 20260505102212 | 46 | 178 | 0.0 | 1.0 | 0.00 | 0.00 | 0.00 | 97 | 1016.3 |
| 20260505101711 | 46 | 103 | 0.0 | 0.0 | 0.00 | 0.00 | 0.00 | 97 | 1016.1 |
| 20260505101206 | 46 | 98 | 0.0 | 1.0 | 0.00 | 0.00 | 0.00 | 97 | 1016.3 |
| 20260505100703 | 47 | 130 | 0.0 | 1.0 | 0.00 | 0.00 | 0.00 | 97 | 1016.0 |
| 20260505100200 | 47 | 151 | 1.0 | 1.0 | 0.00 | 0.00 | 0.00 | 97 | 1015.8 |
| 20260505095655 | 47 | 152 | 0.0 | 0.0 | 0.00 | 0.00 | 0.00 | 97 | 1016.0 |
| 20260505095153 | 47 | 152 | 0.0 | 0.0 | 0.00 | 0.00 | 0.00 | 97 | 1016.1 |
| 20260505094649 | 47 | 152 | 0.0 | 0.0 | 0.00 | 0.00 | 0.00 | 97 | 1016.1 |
| 20260505094145 | 48 | 152 | 0.0 | 0.0 | 0.00 | 0.00 | 0.00 | 97 | 1016.0 |
| 20260505093642 | 48 | 152 | 0.0 | 1.0 | 0.00 | 0.00 | 0.00 | 97 | 1016.1 |
| 20260505093139 | 47 | 152 | 0.0 | 1.0 | 0.00 | 0.00 | 0.00 | 97 | 1015.9 |
| 20260505092636 | 47 | 152 | 0.0 | 0.0 | 0.00 | 0.00 | 0.00 | 97 | 1015.9 |
| 20260505092135 | 47 | 152 | 0.0 | 0.0 | 0.00 | 0.00 | 0.00 | 97 | 1016.0 |
| 20260505091631 | 47 | 152 | 0.0 | 0.0 | 0.00 | 0.00 | 0.00 | 97 | 1015.8 |
| 20260505091130 | 47 | 152 | 0.0 | 0.0 | 0.00 | 0.00 | 0.00 | 97 | 1016.0 |
| 20260505090627 | 48 | 152 | 0.0 | 0.0 | 0.00 | 0.00 | 0.00 | 97 | 1015.9 |
| 20260505090125 | 48 | 152 | 1.0 | 1.0 | 0.00 | 0.00 | 0.00 | 97 | 1016.1 |
| 20260505085622 | 48 | 152 | 0.0 | 1.0 | 0.00 | 0.00 | 0.00 | 97 | 1015.9 |
| 20260505085120 | 48 | 137 | 1.0 | 1.0 | 0.00 | 0.00 | 0.00 | 97 | 1015.9 |
| 20260505084618 | 48 | 137 | 0.0 | 1.0 | 0.00 | 0.00 | 0.00 | 97 | 1015.8 |
| 20260505084116 | 48 | 137 | 0.0 | 1.0 | 0.00 | 0.00 | 0.00 | 97 | 1015.9 |
| 20260505083613 | 47 | 137 | 0.0 | 0.0 | 0.00 | 0.00 | 0.00 | 97 | 1015.9 |
| 20260505083109 | 47 | 137 | 0.0 | 0.0 | 0.00 | 0.00 | 0.00 | 97 | 1016.1 |
| 20260505082605 | 47 | 137 | 0.0 | 0.0 | 0.00 | 0.00 | 0.00 | 97 | 1015.7 |
| 20260505082103 | 47 | 137 | 0.0 | 0.0 | 0.00 | 0.00 | 0.00 | 97 | 1015.8 |
| 20260505081559 | 47 | 137 | 0.0 | 0.0 | 0.00 | 0.00 | 0.00 | 97 | 1015.6 |
| 20260505081056 | 48 | 137 | 0.0 | 0.0 | 0.00 | 0.00 | 0.00 | 97 | 1015.7 |
| 20260505080552 | 47 | 137 | 0.0 | 0.0 | 0.00 | 0.00 | 0.00 | 97 | 1015.7 |
| 20260505080049 | 47 | 137 | 0.0 | 0.0 | 0.00 | 0.00 | 0.00 | 96 | 1015.8 |
| 20260505075544 | 48 | 137 | 0.0 | 0.0 | 0.00 | 0.00 | 0.00 | 96 | 1015.9 |
| 20260505075042 | 48 | 137 | 0.0 | 0.0 | 0.00 | 0.00 | 0.00 | 96 | 1015.6 |
| 20260505074538 | 48 | 137 | 0.0 | 0.0 | 0.00 | 0.00 | 0.00 | 96 | 1015.7 |
| 20260505074036 | 48 | 137 | 0.0 | 0.0 | 0.00 | 0.00 | 0.00 | 96 | 1015.6 |
| 20260505073533 | 48 | 137 | 0.0 | 0.0 | 0.00 | 0.00 | 0.00 | 96 | 1015.5 |
| 20260505073032 | 48 | 137 | 0.0 | 0.0 | 0.00 | 0.00 | 0.00 | 96 | 1015.6 |
| 20260505072527 | 49 | 137 | 0.0 | 0.0 | 0.00 | 0.00 | 0.00 | 96 | 1015.6 |
| 20260505072023 | 49 | 137 | 0.0 | 0.0 | 0.00 | 0.00 | 0.00 | 96 | 1015.7 |
| 20260505071519 | 49 | 137 | 0.0 | 0.0 | 0.00 | 0.00 | 0.00 | 96 | 1015.6 |
| 20260505071017 | 49 | 137 | 0.0 | 0.0 | 0.00 | 0.00 | 0.00 | 96 | 1015.6 |
| 20260505070514 | 49 | 137 | 0.0 | 0.0 | 0.00 | 0.00 | 0.00 | 96 | 1015.6 |
| 20260505070010 | 49 | 137 | 0.0 | 0.0 | 0.00 | 0.00 | 0.00 | 96 | 1015.7 |
| 20260505065506 | 49 | 137 | 0.0 | 0.0 | 0.00 | 0.00 | 0.00 | 96 | 1015.6 |
| 20260505065003 | 49 | 137 | 0.0 | 0.0 | 0.00 | 0.00 | 0.00 | 96 | 1015.7 |
| 20260505064500 | 49 | 137 | 0.0 | 0.0 | 0.00 | 0.00 | 0.00 | 96 | 1015.8 |
| 20260505063958 | 49 | 137 | 0.0 | 0.0 | 0.00 | 0.00 | 0.00 | 96 | 1015.7 |
| 20260505063455 | 49 | 137 | 0.0 | 0.0 | 0.00 | 0.00 | 0.00 | 96 | 1015.8 |
| 20260505062951 | 50 | 137 | 0.0 | 0.0 | 0.00 | 0.00 | 0.00 | 96 | 1015.9 |
| 20260505062448 | 50 | 137 | 0.0 | 0.0 | 0.00 | 0.00 | 0.00 | 95 | 1016.1 |
| 20260505061944 | 50 | 137 | 0.0 | 0.0 | 0.00 | 0.00 | 0.00 | 95 | 1016.0 |
| 20260505061443 | 50 | 137 | 0.0 | 0.0 | 0.00 | 0.00 | 0.00 | 95 | 1016.0 |
| 20260505060940 | 50 | 137 | 0.0 | 0.0 | 0.00 | 0.00 | 0.00 | 95 | 1016.1 |
| 20260505060437 | 50 | 137 | 0.0 | 0.0 | 0.00 | 0.00 | 0.00 | 95 | 1016.0 |
| 20260505055933 | 50 | 137 | 0.0 | 0.0 | 0.00 | 0.00 | 0.00 | 95 | 1016.1 |
| 20260505055429 | 50 | 137 | 0.0 | 0.0 | 0.00 | 0.00 | 0.00 | 95 | 1016.1 |
| 20260505054926 | 50 | 137 | 0.0 | 0.0 | 0.00 | 0.00 | 0.00 | 94 | 1016.1 |
| 20260505054424 | 50 | 137 | 0.0 | 0.0 | 0.00 | 0.00 | 0.00 | 94 | 1016.0 |
| 20260505053922 | 51 | 137 | 0.0 | 0.0 | 0.00 | 0.00 | 0.00 | 94 | 1016.0 |
| 20260505053418 | 51 | 137 | 0.0 | 0.0 | 0.00 | 0.00 | 0.00 | 94 | 1016.0 |
| 20260505052915 | 51 | 137 | 0.0 | 0.0 | 0.00 | 0.00 | 0.00 | 94 | 1016.1 |
| 20260505052412 | 51 | 137 | 0.0 | 0.0 | 0.00 | 0.00 | 0.00 | 94 | 1015.9 |
| 20260505051909 | 52 | 137 | 0.0 | 0.0 | 0.00 | 0.00 | 0.00 | 94 | 1015.9 |
| 20260505051407 | 52 | 137 | 0.0 | 0.0 | 0.00 | 0.00 | 0.00 | 94 | 1016.0 |
| 20260505050905 | 52 | 137 | 0.0 | 0.0 | 0.00 | 0.00 | 0.00 | 94 | 1016.0 |
| 20260505050403 | 52 | 137 | 1.0 | 1.0 | 0.00 | 0.00 | 0.00 | 93 | 1015.9 |
| 20260505041330 | 52 | 178 | 0.0 | 0.0 | 0.00 | 0.00 | 0.00 | 90 | 1016.0 |
| 20260505040827 | 53 | 178 | 0.0 | 0.0 | 0.00 | 0.00 | 0.00 | 89 | 1016.0 |
| 20260505040325 | 53 | 178 | 0.0 | 0.0 | 0.00 | 0.00 | 0.00 | 89 | 1016.0 |
| 20260505035821 | 53 | 178 | 0.0 | 0.0 | 0.00 | 0.00 | 0.00 | 88 | 1016.1 |
| 20260505035317 | 54 | 178 | 0.0 | 0.0 | 0.00 | 0.00 | 0.00 | 88 | 1015.9 |
| 20260505034815 | 54 | 178 | 0.0 | 0.0 | 0.00 | 0.00 | 0.00 | 86 | 1016.1 |
| 20260505034311 | 55 | 178 | 0.0 | 0.0 | 0.00 | 0.00 | 0.00 | 85 | 1016.0 |
| 20260505033808 | 56 | 178 | 0.0 | 0.0 | 0.00 | 0.00 | 0.00 | 84 | 1016.2 |
| 20260505033305 | 56 | 178 | 0.0 | 0.0 | 0.00 | 0.00 | 0.00 | 83 | 1016.3 |
| 20260505032804 | 57 | 178 | 0.0 | 0.0 | 0.00 | 0.00 | 0.00 | 82 | 1016.1 |
| 20260505032259 | 57 | 178 | 0.0 | 0.0 | 0.00 | 0.00 | 0.00 | 81 | 1016.2 |
| 20260505031756 | 57 | 178 | 0.0 | 0.0 | 0.00 | 0.00 | 0.00 | 78 | 1016.1 |
| 20260505031253 | 58 | 178 | 0.0 | 0.0 | 0.00 | 0.00 | 0.00 | 65 | 1016.3 |
| 20260505030750 | 59 | 178 | 0.0 | 0.0 | 0.00 | 0.00 | 0.00 | 64 | 1015.9 |
| 20260505030246 | 60 | 179 | 0.0 | 0.0 | 0.00 | 0.00 | 0.00 | 60 | 1015.9 |
| 20260505025742 | 61 | 179 | 0.0 | 0.0 | 0.00 | 0.00 | 0.00 | 56 | 1016.0 |
| 20260505025240 | 62 | 179 | 0.0 | 0.0 | 0.00 | 0.00 | 0.00 | 55 | 1016.2 |
| 20260505024738 | 63 | 179 | 0.0 | 1.0 | 0.00 | 0.00 | 0.00 | 53 | 1016.1 |
| 20260505024235 | 63 | 178 | 1.0 | 1.0 | 0.00 | 0.00 | 0.00 | 52 | 1016.1 |
| 20260505023732 | 64 | 179 | 0.0 | 1.0 | 0.00 | 0.00 | 0.00 | 51 | 1015.9 |
| 20260505023229 | 64 | 196 | 1.0 | 2.0 | 0.00 | 0.00 | 0.00 | 51 | 1016.2 |
| 20260505022727 | 64 | 210 | 0.0 | 2.0 | 0.00 | 0.00 | 0.00 | 51 | 1016.0 |
| 20260505022224 | 65 | 181 | 1.0 | 2.0 | 0.00 | 0.00 | 0.00 | 51 | 1016.0 |
| 20260505021720 | 65 | 186 | 1.0 | 2.0 | 0.00 | 0.00 | 0.00 | 50 | 1015.8 |
| 20260505021217 | 65 | 183 | 1.0 | 2.0 | 0.00 | 0.00 | 0.00 | 50 | 1015.8 |
| 20260505020713 | 65 | 177 | 0.0 | 1.0 | 0.00 | 0.00 | 0.00 | 50 | 1015.8 |
| 20260505020208 | 65 | 170 | 1.0 | 3.0 | 0.00 | 0.00 | 0.00 | 50 | 1015.9 |
| 20260505015706 | 65 | 192 | 1.0 | 2.0 | 0.00 | 0.00 | 0.00 | 51 | 1015.9 |
| 20260505015203 | 64 | 208 | 2.0 | 2.0 | 0.00 | 0.00 | 0.00 | 51 | 1015.7 |
| 20260505014700 | 64 | 197 | 1.0 | 2.0 | 0.00 | 0.00 | 0.00 | 51 | 1015.4 |
| 20260505014157 | 65 | 188 | 0.0 | 1.0 | 0.00 | 0.00 | 0.00 | 51 | 1015.7 |
| 20260505013654 | 65 | 185 | 0.0 | 2.0 | 0.00 | 0.00 | 0.00 | 50 | 1015.7 |
| 20260505013151 | 65 | 166 | 1.0 | 1.0 | 0.00 | 0.00 | 0.00 | 49 | 1015.6 |
| 20260505012649 | 65 | 160 | 0.0 | 1.0 | 0.00 | 0.00 | 0.00 | 50 | 1015.5 |
| 20260505012146 | 65 | 176 | 0.0 | 1.0 | 0.00 | 0.00 | 0.00 | 50 | 1015.5 |
| 20260505011642 | 65 | 169 | 0.0 | 1.0 | 0.00 | 0.00 | 0.00 | 50 | 1015.4 |
| 20260505011139 | 65 | 169 | 0.0 | 1.0 | 0.00 | 0.00 | 0.00 | 50 | 1015.3 |
| 20260505010639 | 65 | 165 | 0.0 | 2.0 | 0.00 | 0.00 | 0.00 | 51 | 1015.2 |
| 20260505010137 | 65 | 182 | 0.0 | 1.0 | 0.00 | 0.00 | 0.00 | 50 | 1015.5 |
| 20260505005632 | 66 | 182 | 0.0 | 0.0 | 0.00 | 0.00 | 0.00 | 49 | 1015.4 |
| 20260505005130 | 66 | 182 | 0.0 | 1.0 | 0.00 | 0.00 | 0.00 | 47 | 1015.2 |
| 20260505004627 | 67 | 182 | 0.0 | 1.0 | 0.00 | 0.00 | 0.00 | 47 | 1015.0 |
| 20260505004123 | 67 | 183 | 0.0 | 0.0 | 0.00 | 0.00 | 0.00 | 46 | 1015.1 |
| 20260505003621 | 68 | 183 | 0.0 | 1.0 | 0.00 | 0.00 | 0.00 | 45 | 1015.0 |
| 20260505003118 | 68 | 183 | 0.0 | 0.0 | 0.00 | 0.00 | 0.00 | 46 | 1014.9 |
| 20260505002614 | 69 | 182 | 0.0 | 0.0 | 0.00 | 0.00 | 0.00 | 44 | 1015.1 |
| 20260505002112 | 70 | 183 | 0.0 | 1.0 | 0.00 | 0.00 | 0.00 | 43 | 1014.9 |
| 20260505001609 | 70 | 189 | 0.0 | 1.0 | 0.00 | 0.00 | 0.00 | 43 | 1015.1 |
| 20260505001107 | 70 | 185 | 1.0 | 3.0 | 0.00 | 0.00 | 0.00 | 43 | 1014.9 |
| 20260505000603 | 71 | 173 | 0.0 | 1.0 | 0.00 | 0.00 | 0.00 | 42 | 1015.0 |
| 20260504235558 | 71 | 190 | 2.0 | 2.0 | 0.00 | 0.00 | 0.00 | 41 | 1015.0 |
| 20260504235054 | 72 | 183 | 1.0 | 2.0 | 0.00 | 0.00 | 0.00 | 40 | 1014.9 |
| 20260504234551 | 72 | 182 | 0.0 | 2.0 | 0.00 | 0.00 | 0.00 | 41 | 1014.9 |
| 20260504234049 | 73 | 175 | 1.0 | 2.0 | 0.00 | 0.00 | 0.00 | 40 | 1014.8 |
| 20260504233543 | 73 | 184 | 2.0 | 2.0 | 0.00 | 0.00 | 0.00 | 39 | 1014.7 |
| 20260504233041 | 73 | 178 | 1.0 | 2.0 | 0.00 | 0.00 | 0.00 | 40 | 1014.8 |
| 20260504232538 | 74 | 188 | 0.0 | 1.0 | 0.00 | 0.00 | 0.00 | 38 | 1014.8 |
| 20260504232036 | 74 | 188 | 1.0 | 2.0 | 0.00 | 0.00 | 0.00 | 39 | 1014.7 |
| 20260504231532 | 74 | 184 | 0.0 | 2.0 | 0.00 | 0.00 | 0.00 | 37 | 1014.7 |
| 20260504231028 | 74 | 189 | 1.0 | 2.0 | 0.00 | 0.00 | 0.00 | 37 | 1014.7 |
| 20260504230524 | 75 | 176 | 1.0 | 2.0 | 0.00 | 0.00 | 0.00 | 37 | 1014.7 |
| 20260504230024 | 75 | 148 | 2.0 | 2.0 | 0.00 | 0.00 | 0.00 | 35 | 1014.6 |
| 20260504225520 | 75 | 178 | 0.0 | 3.0 | 0.00 | 0.00 | 0.00 | 35 | 1014.5 |
| 20260504225017 | 75 | 193 | 4.0 | 4.0 | 0.00 | 0.00 | 0.00 | 35 | 1014.7 |
| 20260504224514 | 75 | 190 | 4.0 | 4.0 | 0.00 | 0.00 | 0.00 | 34 | 1014.7 |
| 20260504224011 | 75 | 201 | 2.0 | 3.0 | 0.00 | 0.00 | 0.00 | 37 | 1014.7 |
| 20260504223507 | 75 | 178 | 1.0 | 3.0 | 0.00 | 0.00 | 0.00 | 36 | 1014.7 |
| 20260504223003 | 76 | 213 | 2.0 | 6.0 | 0.00 | 0.00 | 0.00 | 34 | 1014.9 |
| 20260504222500 | 76 | 228 | 1.0 | 4.0 | 0.00 | 0.00 | 0.00 | 35 | 1014.7 |
| 20260504221958 | 76 | 163 | 2.0 | 7.0 | 0.00 | 0.00 | 0.00 | 34 | 1014.7 |
| 20260504221455 | 76 | 170 | 3.0 | 4.0 | 0.00 | 0.00 | 0.00 | 35 | 1014.7 |
| 20260504220952 | 76 | 156 | 3.0 | 6.0 | 0.00 | 0.00 | 0.00 | 33 | 1014.7 |
| 20260504220448 | 76 | 176 | 1.0 | 4.0 | 0.00 | 0.00 | 0.00 | 34 | 1014.8 |
| 20260504215945 | 76 | 179 | 2.0 | 3.0 | 0.00 | 0.00 | 0.00 | 33 | 1014.9 |
| 20260504215442 | 76 | 204 | 4.0 | 6.0 | 0.00 | 0.00 | 0.00 | 33 | 1014.6 |
| 20260504214939 | 76 | 205 | 3.0 | 8.0 | 0.00 | 0.00 | 0.00 | 32 | 1014.7 |
| 20260504214435 | 77 | 267 | 3.0 | 4.0 | 0.00 | 0.00 | 0.00 | 33 | 1014.6 |
| 20260504213932 | 76 | 223 | 4.0 | 4.0 | 0.00 | 0.00 | 0.00 | 34 | 1014.8 |
| 20260504213428 | 76 | 179 | 4.0 | 9.0 | 0.00 | 0.00 | 0.00 | 33 | 1014.8 |
| 20260504212925 | 76 | 219 | 6.0 | 9.0 | 0.00 | 0.00 | 0.00 | 33 | 1014.8 |
| 20260504212421 | 76 | 259 | 3.0 | 8.0 | 0.00 | 0.00 | 0.00 | 34 | 1014.8 |
| 20260504211919 | 76 | 207 | 2.0 | 7.0 | 0.00 | 0.00 | 0.00 | 33 | 1014.6 |
| 20260504211415 | 76 | 214 | 4.0 | 8.0 | 0.00 | 0.00 | 0.00 | 32 | 1014.8 |
| 20260504210912 | 77 | 236 | 6.0 | 10.0 | 0.00 | 0.00 | 0.00 | 31 | 1014.6 |
| 20260504210409 | 77 | 215 | 5.0 | 7.0 | 0.00 | 0.00 | 0.00 | 30 | 1014.8 |
| 20260504205906 | 76 | 218 | 4.0 | 9.0 | 0.00 | 0.00 | 0.00 | 32 | 1014.7 |
| 20260504205404 | 77 | 116 | 3.0 | 7.0 | 0.00 | 0.00 | 0.00 | 32 | 1014.8 |
| 20260504204902 | 77 | 218 | 5.0 | 7.0 | 0.00 | 0.00 | 0.00 | 31 | 1014.8 |
| 20260504204400 | 76 | 187 | 4.0 | 6.0 | 0.00 | 0.00 | 0.00 | 34 | 1014.9 |
| 20260504203900 | 76 | 155 | 5.0 | 9.0 | 0.00 | 0.00 | 0.00 | 33 | 1014.7 |
| 20260504203356 | 76 | 195 | 6.0 | 9.0 | 0.00 | 0.00 | 0.00 | 34 | 1014.9 |
| 20260504202852 | 77 | 152 | 4.0 | 7.0 | 0.00 | 0.00 | 0.00 | 33 | 1014.9 |
| 20260504202349 | 76 | 143 | 1.0 | 4.0 | 0.00 | 0.00 | 0.00 | 33 | 1015.1 |
| 20260504201845 | 77 | 156 | 4.0 | 9.0 | 0.00 | 0.00 | 0.00 | 34 | 1014.9 |
| 20260504201343 | 77 | 261 | 5.0 | 7.0 | 0.00 | 0.00 | 0.00 | 33 | 1015.0 |
| 20260504200840 | 77 | 173 | 3.0 | 6.0 | 0.00 | 0.00 | 0.00 | 35 | 1015.0 |
| 20260504200337 | 77 | 241 | 4.0 | 8.0 | 0.00 | 0.00 | 0.00 | 32 | 1015.0 |
| 20260504195833 | 77 | 182 | 5.0 | 7.0 | 0.00 | 0.00 | 0.00 | 35 | 1014.9 |
| 20260504195329 | 76 | 183 | 6.0 | 9.0 | 0.00 | 0.00 | 0.00 | 34 | 1015.2 |
| 20260504194826 | 77 | 125 | 7.0 | 10.0 | 0.00 | 0.00 | 0.00 | 33 | 1015.2 |
| 20260504194322 | 77 | 232 | 4.0 | 7.0 | 0.00 | 0.00 | 0.00 | 33 | 1015.0 |